Weather in Novaya Pogoshch

Russia / Bryansk Oblast     52°20′08″N   33°53′54″E
temp.,
°C
wind,
m/s
gust,
m/s
humid.,
%
clouds,
%
prec.,
mm/h
press.,
hPa
HPBL,
m
13 april, tue
tue1300:00+11se388399 0.0 1020134
03:00+10se378792 0.0 1021112
06:00+9se369197 0.0 1022115
09:00+13se597530 0.0 1021408
12:00+16sse696180 0.0 10211301
15:00+16s4666100 0.4 1020899
18:00+14se3777100 0.7 1019249
21:00+12sse248379 0.8 101997
14 april, wed
wed1400:00+11s239075 0.0 101962
03:00+10sse259187 0.0 1019161
06:00+10sse2590100 0.0 1018124
09:00+10se2589100 0.0 1018234
12:00+11se2385100 0.1 1017264
15:00+15sse3462100 0.3 10151272
18:00+14sw1271100 0.6 101592
21:00+11sw1178100 0.9 101519
15 april, thu
thu1500:00+10ssw1183100 0.2 101512
03:00+9ese1185100 0.2 101510
06:00+8ene2291100 0.0 101517
09:00+11ese4582100 0.5 1014254
12:00+12ne3369100 0.7 1014518
15:00+11ene3487100 1.1 1013294
18:00+12e237723 0.4 1013390
21:00+9e358834 0.4 101382
16 april, fri
fri1600:00+8se349026 0.0 101365
03:00+8ese2489100 0.0 1013165
06:00+8ene3591100 0.1 1013156
09:00+9e3789100 1.6 1013417
12:00+9e479279 2.3 1014393
15:00+14sse575794 2.9 10141595
18:00+12s3563100 0.1 1015157
21:00+9sw257474 0.1 1017125
17 april, sat
sat1700:00+7nnw347979 0.0 101855
03:00+8nw1182100 0.0 101813
06:00+7nw1291100 0.1 101850
09:00+10ne4993100 0.4 1019716
12:00+10ne71185100 0.2 1020838
15:00+11ne71381100 0.4 10201217
18:00+11ene71476100 0.0 1021877
21:00+10ene71372100 0.1 1023981